Probability
35 77 100 97 97 97 97 100 100 100 100 100 100 100 100 100 100 100 97 94 94 81 84 90 90 84 87 87 77 84 77 74 71 71 77 74 81 77 77 74 68 61 81
65 87 100 100 97 100 100 100 100 100 100 100 100 100 100 100 100 94 94 90 87 81 84 87 84 81 87 81 81 81 71 77 77 68 77 68 77 81 81 68 58 65 77
87 94 100 100 100 100 100 100 100 100 100 100 100 100 100 100 100 94 94 84 81 77 77 81 84 81 81 90 81 87 77 71 71 71 68 58 68 77 74 74 77 74 81
90 94 100 100 100 100 100 100 100 100 100 100 100 100 100 100 100 94 81 81 81 77 71 77 74 77 84 87 84 87 77 77 74 61 35 48 58 71 81 77 81 81 74
90 90 97 100 100 100 100 100 100 100 100 100 100 100 100 100 100 84 84 81 77 77 77 71 84 81 87 84 81 87 84 74 71 32 29 45 71 74 74 81 84 87 87
100 100 100 100 100 100 100 100 100 100 100 100 100 100 100 97 97 87 90 90 81 77 81 77 81 77 77 77 81 87 87 81 29 19 29 45 65 74 71 81 87 87 90
97 100 97 100 100 100 100 100 100 100 100 100 100 100 100 100 100 94 97 90 84 84 84 87 77 84 74 77 77 81 84 55 10 16 26 42 71 87 77 84 81 90 87
97 97 100 100 100 100 100 100 100 100 100 100 100 100 100 97 97 94 94 94 90 90 87 87 81 81 87 87 71 81 81 42 13 16 29 48 77 84 84 77 87 90 87
97 97 97 97 97 100 100 100 100 100 100 100 100 100 100 97 97 94 94 94 90 90 84 81 74 71 81 81 81 77 71 45 6 19 26 58 81 87 84 84 84 81 84
97 97 97 97 97 97 100 100 100 100 100 100 100 100 97 97 94 97 97 97 90 84 81 81 77 71 77 81 77 74 77 32 3 10 32 74 87 87 81 84 84 77 84
97 94 90 94 97 97 100 100 100 100 100 100 100 100 97 81 81 84 90 94 84 77 77 77 81 77 81 71 77 74 52 6 6 13 32 77 84 87 87 84 81 74 81
97 90 87 84 90 97 97 100 100 97 97 100 90 90 58 55 61 84 87 90 87 84 87 87 87 55 32 39 48 45 10 13 6 16 39 74 81 84 81 77 77 74 71
81 90 84 84 87 87 90 94 90 77 77 81 71 48 45 35 48 48 61 61 61 58 35 39 29 13 3 3 6 6 6 6 3 19 39 81 87 84 84 84 74 81 77
68 84 84 84 81 77 81 87 74 71 71 65 45 35 26 26 35 39 32 29 26 10 10 10 6 0 3 3 6 3 3 3 3 16 39 71 87 87 87 84 77 84 81
52 65 81 77 74 65 58 74 71 68 58 48 32 23 16 16 23 19 23 19 10 10 6 3 3 3 6 6 6 3 3 3 6 19 42 61 77 81 74 71 65 68 71
42 52 61 68 74 52 58 45 55 48 48 42 23 23 16 13 16 10 13 16 13 10 6 3 3 3 3 3 0 3 3 3 0 13 29 52 84 87 77 74 61 55 61
29 29 48 52 45 32 32 35 39 35 32 45 32 23 19 16 10 13 13 10 13 6 3 3 3 3 3 3 0 3 6 3 0 10 19 35 55 84 90 84 81 71 55
26 19 26 42 35 19 16 19 16 16 23 23 13 16 23 19 3 6 6 6 6 6 6 0 0 6 3 3 3 3 6 3 3 3 16 23 39 52 77 81 87 84 74
19 16 16 23 26 13 13 10 10 10 6 10 6 13 19 19 16 6 6 6 3 6 6 3 3 0 3 0 3 0 0 0 3 3 10 6 19 35 42 61 84 87 71
19 16 13 16 13 10 10 10 10 6 6 3 3 3 10 19 23 3 3 3 3 3 6 0 0 3 3 3 3 3 0 0 0 0 3 6 6 16 26 29 55 68 77
16 19 19 16 13 10 6 10 10 6 6 6 3 3 6 16 10 10 10 3 3 3 3 3 3 3 3 3 3 0 0 0 0 0 0 3 3 10 10 16 26 32 39
29 16 19 16 13 13 10 6 6 6 6 6 6 6 10 13 13 10 3 6 3 3 3 3 0 3 0 0 0 0 0 0 0 0 0 0 0 6 6 3 13 10 10
35 19 26 19 19 16 10 6 3 3 6 6 6 6 6 6 10 10 6 6 3 3 3 3 0 0 3 0 0 0 0 0 0 0 0 0 0 0 0 6 6 3 6
42 32 26 19 19 19 16 19 6 6 6 6 6 6 3 6 6 6 6 6 3 3 3 3 3 3 3 0 0 0 0 0 0 0 0 0 0 0 3 0 3 3 3
39 32 26 23 23 16 16 16 13 3 3 3 3 3 3 3 3 6 6 6 3 3 3 3 3 3 0 0 0 0 0 0 0 0 0 0 0 0 0 0 3 3 0
42 39 39 26 19 16 16 13 13 6 6 3 3 3 3 3 3 3 3 3 3 3 3 3 3 3 0 0 0 0 0 0 0 0 0 0 0 0 0 0 0 0 0
Height
5883 5884 5885 5885 5885 5886 5886 5887 5888 5889 5890 5891 5892 5893 5894 5895 5895 5896 5897 5897 5898 5898 5899 5899 5899 5899 5899 5899 5900 5900 5900 5900 5900 5900 5901 5901 5901 5901 5901 5902 5902 5902 5903
5884 5885 5885 5885 5886 5886 5887 5888 5889 5890 5891 5892 5893 5894 5894 5895 5896 5897 5897 5898 5898 5899 5899 5899 5899 5900 5900 5900 5900 5900 5900 5900 5901 5901 5901 5901 5902 5902 5902 5902 5903 5903 5904
5885 5885 5885 5886 5886 5887 5888 5889 5890 5891 5892 5893 5894 5894 5895 5896 5896 5897 5898 5898 5898 5899 5899 5899 5900 5900 5900 5900 5901 5901 5901 5901 5901 5902 5902 5902 5903 5903 5903 5903 5904 5904 5904
5886 5886 5886 5886 5887 5887 5888 5889 5890 5891 5892 5893 5894 5895 5895 5896 5896 5897 5898 5898 5899 5899 5899 5899 5900 5900 5900 5901 5901 5901 5901 5901 5902 5902 5902 5903 5903 5904 5904 5904 5904 5905 5905
5886 5886 5886 5887 5887 5888 5889 5889 5891 5892 5892 5893 5894 5895 5896 5896 5897 5897 5898 5898 5899 5899 5899 5899 5900 5900 5901 5901 5901 5901 5901 5902 5902 5903 5903 5903 5904 5904 5904 5905 5905 5906 5906
5887 5886 5887 5887 5887 5888 5889 5890 5891 5892 5893 5894 5894 5895 5896 5896 5897 5897 5898 5898 5899 5899 5899 5900 5900 5901 5901 5901 5902 5902 5902 5902 5903 5903 5903 5904 5904 5904 5905 5905 5905 5906 5906
5887 5887 5887 5887 5887 5888 5889 5890 5891 5892 5893 5894 5895 5895 5896 5897 5897 5898 5898 5898 5899 5899 5899 5900 5900 5901 5901 5901 5902 5902 5903 5903 5904 5904 5904 5904 5904 5905 5905 5905 5906 5906 5907
5887 5887 5886 5887 5887 5888 5889 5890 5891 5892 5893 5894 5895 5895 5896 5897 5897 5898 5898 5898 5899 5899 5899 5900 5900 5901 5901 5902 5902 5902 5903 5904 5904 5904 5904 5905 5905 5905 5905 5906 5906 5906 5907
5887 5887 5886 5886 5887 5888 5889 5890 5891 5892 5893 5894 5895 5895 5896 5897 5898 5898 5898 5899 5899 5899 5900 5900 5901 5901 5901 5902 5902 5903 5903 5904 5904 5905 5905 5905 5905 5905 5906 5906 5906 5906 5907
5887 5887 5886 5886 5887 5888 5889 5890 5891 5892 5893 5893 5894 5895 5896 5897 5897 5898 5898 5899 5899 5900 5900 5900 5901 5901 5902 5902 5902 5903 5904 5904 5904 5905 5905 5905 5905 5906 5906 5906 5906 5906 5907
5887 5887 5886 5886 5887 5887 5888 5889 5890 5891 5892 5893 5894 5895 5896 5897 5897 5898 5898 5899 5899 5900 5900 5900 5901 5901 5902 5902 5903 5903 5904 5904 5904 5905 5905 5905 5905 5906 5906 5906 5906 5906 5906
5887 5887 5886 5886 5886 5886 5887 5888 5889 5890 5891 5892 5893 5894 5895 5896 5897 5898 5898 5899 5899 5900 5900 5901 5901 5902 5902 5902 5903 5903 5904 5904 5904 5904 5905 5905 5905 5905 5906 5906 5906 5906 5906
5888 5887 5886 5885 5885 5885 5886 5886 5887 5889 5890 5891 5892 5894 5895 5895 5896 5897 5898 5899 5899 5900 5900 5901 5901 5902 5902 5902 5903 5903 5904 5904 5904 5904 5904 5905 5905 5905 5905 5905 5905 5906 5906
5888 5887 5886 5885 5885 5884 5885 5885 5886 5887 5889 5890 5892 5893 5894 5895 5895 5896 5897 5898 5899 5900 5900 5901 5901 5901 5902 5902 5903 5903 5904 5904 5904 5904 5904 5905 5905 5905 5905 5905 5905 5905 5905
5888 5886 5885 5884 5884 5884 5884 5884 5885 5886 5887 5889 5890 5892 5893 5894 5895 5896 5897 5898 5899 5900 5900 5901 5901 5901 5902 5902 5902 5903 5903 5903 5904 5904 5904 5904 5904 5904 5905 5905 5905 5905 5905
5887 5886 5885 5884 5883 5883 5883 5883 5884 5885 5886 5887 5889 5890 5892 5893 5894 5895 5896 5897 5898 5899 5900 5900 5900 5901 5901 5902 5902 5903 5903 5903 5903 5904 5904 5904 5904 5904 5904 5904 5904 5904 5904
5886 5885 5884 5883 5882 5882 5882 5882 5883 5884 5884 5886 5887 5889 5891 5892 5893 5895 5896 5897 5898 5898 5899 5900 5900 5901 5901 5902 5902 5902 5902 5902 5903 5903 5903 5903 5903 5903 5903 5904 5904 5904 5904
5885 5884 5883 5882 5881 5881 5881 5881 5881 5882 5883 5884 5886 5888 5889 5890 5892 5893 5895 5896 5897 5898 5898 5899 5900 5900 5901 5901 5901 5901 5902 5902 5902 5902 5902 5902 5903 5903 5903 5903 5903 5903 5903
5883 5882 5882 5881 5880 5879 5880 5880 5880 5881 5882 5883 5884 5886 5888 5889 5891 5892 5893 5895 5896 5897 5897 5898 5899 5900 5900 5900 5901 5901 5901 5901 5901 5901 5901 5901 5902 5902 5902 5902 5902 5902 5901
5882 5881 5880 5880 5879 5878 5878 5878 5878 5879 5879 5881 5883 5885 5886 5888 5889 5890 5892 5893 5894 5895 5896 5897 5898 5898 5899 5899 5899 5900 5900 5900 5900 5900 5900 5900 5900 5900 5900 5900 5900 5900 5900
5881 5880 5880 5879 5878 5877 5877 5877 5877 5878 5878 5880 5881 5883 5884 5886 5887 5889 5890 5891 5892 5894 5895 5895 5896 5897 5897 5898 5898 5898 5898 5899 5899 5899 5899 5899 5899 5899 5899 5899 5898 5898 5898
5881 5880 5879 5878 5878 5876 5876 5875 5876 5877 5877 5878 5880 5881 5883 5884 5885 5887 5888 5889 5891 5892 5893 5894 5894 5895 5895 5896 5897 5897 5897 5898 5897 5897 5897 5897 5897 5897 5897 5897 5896 5896 5896
5881 5879 5879 5878 5877 5876 5876 5875 5875 5875 5876 5877 5878 5879 5880 5882 5884 5885 5887 5888 5889 5890 5891 5891 5892 5893 5893 5894 5894 5895 5895 5895 5895 5895 5895 5895 5895 5895 5894 5894 5894 5894 5894
5880 5879 5878 5877 5876 5876 5875 5875 5874 5874 5874 5875 5876 5877 5878 5880 5881 5883 5884 5885 5886 5887 5888 5889 5890 5891 5891 5892 5892 5892 5893 5893 5893 5893 5893 5893 5892 5892 5892 5892 5892 5891 5891
5878 5878 5877 5876 5875 5875 5874 5874 5873 5873 5873 5874 5874 5875 5876 5877 5879 5880 5881 5883 5884 5885 5886 5887 5888 5888 5889 5889 5890 5890 5890 5890 5890 5890 5890 5890 5890 5889 5889 5889 5889 5888 5888
5877 5876 5875 5874 5874 5873 5872 5872 5872 5872 5872 5872 5872 5873 5874 5875 5876 5877 5878 5880 5881 5882 5883 5884 5885 5886 5886 5886 5887 5887 5887 5887 5887 5887 5887 5887 5887 5886 5886 5886 5885 5885 5885
Wind_Speed
4 3 3 5 6 7 7 8 8 8 8 8 7 7 7 7 6 5 5 4 4 3 4 4 4 4 3 3 3 3 4 4 4 5 5 5 5 5 5 5 5 5 5
4 3 3 5 6 7 7 7 8 8 8 8 7 7 7 6 5 5 4 4 3 3 3 3 3 3 3 3 3 3 3 3 4 4 5 5 5 4 4 5 5 4 5
4 3 3 4 5 6 6 7 7 7 7 7 7 7 6 6 5 5 4 4 3 3 3 3 2 2 2 2 2 2 3 3 3 4 4 4 4 4 4 4 5 5 5
3 2 2 3 4 5 6 6 6 6 6 6 6 6 6 5 6 5 4 4 3 3 3 2 2 2 3 2 2 2 2 3 3 3 3 3 3 4 4 4 5 5 5
3 1 1 2 2 3 4 5 5 5 5 5 5 5 5 5 5 5 4 4 3 3 2 2 3 3 3 2 2 2 2 3 3 3 3 3 3 4 3 3 4 4 4
3 1 1 1 2 2 3 3 3 4 4 4 4 4 4 5 5 5 4 3 3 3 3 2 2 2 2 2 2 2 2 2 2 2 3 3 3 3 3 3 3 3 3
3 1 1 1 1 2 2 2 2 2 3 3 3 3 3 4 4 4 4 3 2 3 3 2 2 2 2 2 2 2 2 2 2 2 2 2 2 3 2 2 2 3 2
3 1 0 1 1 2 2 2 2 2 1 2 2 3 3 4 4 4 4 3 3 3 2 2 2 2 2 2 2 2 2 2 1 2 2 2 2 2 1 1 1 2 2
5 3 1 0 2 2 2 2 2 2 1 1 1 2 2 3 3 3 3 3 3 2 2 2 2 2 2 2 2 2 2 1 1 1 2 2 2 1 1 1 1 2 2
6 4 2 0 1 2 2 3 2 2 2 1 0 1 1 2 2 2 2 2 2 2 2 2 2 2 2 2 2 2 1 1 1 1 1 1 1 0 0 1 1 2 2
7 5 2 1 1 2 3 4 3 3 3 2 1 1 0 0 0 1 1 2 2 2 2 2 1 2 2 2 2 1 1 1 1 1 1 1 0 0 1 1 1 2 3
7 5 3 2 1 2 3 4 5 5 4 4 3 2 2 1 1 0 0 1 1 1 1 1 1 1 1 1 1 1 1 1 0 1 1 0 1 1 2 2 2 2 3
8 6 4 3 2 3 3 4 5 5 6 5 4 3 3 2 2 1 1 1 0 1 1 1 1 0 1 1 1 1 0 0 0 1 1 1 1 2 2 3 3 3 3
9 7 5 4 3 3 2 3 5 5 6 6 6 5 4 3 2 2 1 1 1 0 0 0 0 0 1 1 1 1 1 0 0 0 1 1 2 2 2 3 3 3 4
9 8 7 5 4 4 2 2 5 5 6 7 6 6 5 4 3 3 2 2 2 1 1 1 1 1 0 1 1 1 0 1 0 0 1 1 2 2 3 3 3 4 4
10 9 9 6 5 5 3 2 4 6 7 8 8 8 6 6 5 4 3 3 3 2 1 1 1 2 1 1 1 1 1 1 1 1 1 2 2 3 3 3 3 4 4
11 10 9 7 6 5 4 4 5 6 7 8 9 9 8 8 7 6 5 4 4 3 3 2 2 2 1 2 2 2 2 2 2 2 2 3 3 3 4 4 5 5 5
11 10 9 7 5 4 4 4 5 6 7 7 9 9 9 9 9 8 7 6 5 5 4 4 3 3 2 2 3 3 3 3 3 3 3 4 4 4 5 5 6 6 6
10 9 8 8 6 5 5 4 4 6 8 8 9 9 9 10 10 9 9 8 7 6 6 5 4 4 4 3 3 4 4 4 3 4 4 4 5 5 6 6 6 7 7
11 9 7 7 6 5 5 4 4 6 9 9 9 10 11 11 11 10 9 9 8 8 7 7 6 6 6 5 5 4 5 4 4 5 5 5 6 6 6 7 7 7 8
11 8 7 6 5 5 4 4 4 5 7 9 10 11 11 12 12 10 10 9 9 10 9 9 8 8 8 7 6 6 6 6 6 7 7 7 7 8 8 8 8 8 9
10 8 6 5 5 4 4 3 2 3 6 7 10 10 10 11 12 12 11 10 11 10 10 10 10 10 10 9 8 8 8 8 9 9 9 8 9 9 9 9 9 10 10
10 8 6 5 5 4 4 3 3 3 4 6 9 10 11 11 11 11 11 11 11 11 10 11 11 10 10 10 10 10 10 10 10 10 10 10 10 10 10 11 11 11 11
10 8 6 6 5 5 4 5 5 4 5 5 7 9 11 12 13 12 12 11 11 12 12 12 12 12 11 11 11 11 11 11 11 11 11 12 12 12 12 12 12 12 12
9 7 7 6 5 5 5 5 5 5 6 6 7 9 11 12 13 13 13 13 12 12 13 13 13 13 13 12 12 12 12 12 13 13 14 14 13 13 13 13 14 14 14
10 8 7 7 6 5 5 6 5 6 6 6 7 8 10 11 13 14 13 14 14 13 14 14 14 15 15 15 14 14 14 14 14 15 15 15 15 15 15 16 16 16 16
Wind_Direction
90 112 114 114 111 104 97 94 96 93 83 75 71 73 71 68 68 67 65 65 66 67 69 75 75 72 75 77 78 83 88 89 93 98 98 94 93 97 102 108 105 99 100
73 97 107 110 103 101 100 96 92 89 84 75 70 71 69 66 65 62 58 57 62 66 68 74 73 74 71 72 79 83 85 89 95 97 100 98 91 93 101 112 117 108 109
55 75 93 104 105 102 97 96 91 83 80 75 75 70 66 64 59 55 50 55 63 63 62 65 67 70 70 73 77 84 86 91 100 103 103 99 89 95 105 114 122 116 115
33 52 83 109 114 113 105 100 94 89 81 77 73 68 64 64 59 51 50 51 52 56 61 61 67 71 76 75 78 81 85 97 107 107 107 104 100 103 115 121 124 120 120
25 37 92 114 122 116 110 103 98 92 85 79 72 66 61 57 53 50 47 49 51 56 59 59 66 71 74 73 74 79 89 101 117 111 110 113 111 113 122 128 126 124 127
20 26 94 134 149 133 124 116 104 89 78 75 71 65 61 56 50 43 41 46 52 50 46 48 62 71 73 72 73 74 93 100 112 107 112 120 113 115 126 133 139 133 132
13 34 101 154 161 152 144 138 131 98 80 73 66 61 63 58 50 47 45 52 48 43 43 47 64 72 68 79 82 85 102 94 98 105 109 111 109 118 124 135 147 146 138
17 29 61 183 202 188 170 158 156 144 114 77 64 65 66 55 48 53 52 50 46 43 42 50 71 74 81 91 96 97 96 84 92 90 90 96 108 119 126 161 194 170 166
17 10 5 199 205 201 195 200 196 185 173 133 72 76 76 52 41 46 44 36 36 37 36 47 66 84 102 108 106 104 103 96 87 80 91 101 104 111 137 229 224 201 201
9 7 5 14 215 208 217 225 215 204 198 195 178 90 79 64 48 46 43 41 33 31 38 56 73 93 106 102 99 104 113 107 83 69 91 91 89 105 173 231 220 221 222
10 9 359 341 268 226 232 236 224 218 219 226 233 225 161 76 56 51 52 49 40 31 27 38 71 109 110 104 109 114 110 102 82 71 82 87 89 263 268 267 245 241 244
8 12 16 5 309 265 245 237 231 228 228 230 230 226 235 249 268 278 92 72 56 30 20 31 80 124 134 117 117 123 91 89 56 40 28 337 266 274 280 274 259 264 266
9 10 15 9 333 296 250 238 238 230 229 227 223 228 231 237 250 248 212 192 107 32 18 32 91 139 154 152 141 141 7 38 359 11 0 320 281 276 279 270 261 261 268
3 5 4 356 346 317 273 238 239 232 225 224 223 225 226 232 229 227 220 194 192 163 359 318 118 107 140 180 190 218 275 273 96 24 345 309 278 279 275 270 260 260 264
357 356 356 347 334 313 290 233 232 227 220 219 222 224 227 230 223 221 218 209 193 193 210 276 249 202 219 221 241 245 240 184 182 337 308 290 266 269 275 269 264 266 264
354 351 349 339 326 316 287 263 236 225 222 223 223 223 222 223 222 219 216 215 210 221 234 262 240 220 224 221 227 226 224 224 241 256 269 273 266 271 274 276 275 273 272
344 342 342 336 328 321 302 276 247 229 229 229 226 224 221 220 219 215 216 221 226 232 236 242 230 207 209 219 223 231 247 259 266 269 272 271 277 281 277 277 278 275 273
336 336 335 331 329 317 311 289 251 232 232 232 229 225 222 222 220 218 220 225 233 233 235 231 230 225 235 241 241 249 255 257 262 268 271 270 273 282 281 278 279 277 274
334 331 329 329 332 320 306 293 267 240 234 232 230 229 228 226 222 220 225 230 236 237 233 232 235 237 245 256 262 258 260 260 262 264 269 270 274 280 281 282 280 278 277
333 323 321 319 317 313 299 288 258 244 237 232 231 233 232 229 224 224 229 233 237 235 234 236 240 243 247 254 263 263 261 262 266 271 276 274 275 278 280 280 277 276 275
337 324 316 314 313 309 301 277 252 239 240 235 234 231 233 232 228 227 229 234 235 235 237 239 243 247 249 250 259 265 264 263 266 270 275 274 274 275 278 279 277 277 275
337 329 320 308 304 310 326 307 273 256 256 242 239 235 236 234 231 231 235 238 239 241 241 242 246 251 254 256 259 264 266 265 267 270 273 274 273 274 274 274 274 278 276
332 323 312 304 296 305 320 317 301 278 274 247 237 233 230 233 235 234 236 241 243 245 245 245 247 251 255 256 258 262 265 267 270 273 274 275 276 274 273 274 276 278 278
325 316 309 304 295 288 290 285 287 280 282 261 244 237 233 233 234 235 238 245 246 245 247 249 250 251 255 257 259 261 264 266 268 271 273 275 276 275 274 275 277 279 278
320 317 309 306 293 286 278 276 279 274 274 261 248 240 236 231 233 235 237 247 249 249 249 249 252 254 256 259 260 261 263 267 269 270 272 273 275 274 275 276 274 276 278
318 313 304 305 296 289 277 272 273 271 270 266 258 248 245 240 238 236 242 245 247 249 249 249 251 255 256 258 260 260 262 264 267 269 271 273 273 272 274 274 273 274 276